Time,TemperatureF,DewpointF,PressureIn,WindDirection,WindDirectionDegrees,WindSpeedMPH,WindSpeedGustMPH,Humidity,HourlyPrecipIn,Conditions,Clouds,dailyrainin,SoftwareType,DateUTC
2014-01-25 00:01:00,48.2,37.4,30.32,NE,45,3.4,4.7,66,0.00,,,0.00,WUHU216HW,2014-01-25 05:01:00,
2014-01-25 00:06:00,48.2,37.7,30.31,East,90,2.2,4.7,67,0.00,,,0.00,WUHU216HW,2014-01-25 05:06:00,
2014-01-25 00:11:00,48.4,37.9,30.31,NE,45,1.1,2.2,67,0.00,,,0.00,WUHU216HW,2014-01-25 05:11:00,
2014-01-25 00:16:00,48.4,37.9,30.31,East,90,2.5,2.5,67,0.00,,,0.00,WUHU216HW,2014-01-25 05:16:00,
2014-01-25 00:21:00,48.4,37.9,30.31,ENE,68,0.9,2.5,67,0.00,,,0.00,WUHU216HW,2014-01-25 05:21:00,
2014-01-25 00:26:00,48.4,37.9,30.31,ENE,68,3.4,3.4,67,0.00,,,0.00,WUHU216HW,2014-01-25 05:26:00,
2014-01-25 00:31:00,48.4,38.4,30.31,ENE,68,1.8,3.4,68,0.00,,,0.00,WUHU216HW,2014-01-25 05:31:00,
2014-01-25 00:36:00,48.4,38.4,30.31,NE,45,1.8,3.4,68,0.00,,,0.00,WUHU216HW,2014-01-25 05:36:00,
2014-01-25 00:41:00,48.4,38.4,30.31,ENE,68,2.5,2.7,68,0.00,,,0.00,WUHU216HW,2014-01-25 05:41:00,
2014-01-25 00:46:00,48.4,38.4,30.31,NE,45,2.2,2.9,68,0.00,,,0.00,WUHU216HW,2014-01-25 05:46:00,
2014-01-25 00:51:00,48.4,38.7,30.30,NE,45,2.5,2.9,69,0.00,,,0.00,WUHU216HW,2014-01-25 05:51:00,
2014-01-25 00:56:00,48.4,38.7,30.30,NE,45,2.7,2.7,69,0.00,,,0.00,WUHU216HW,2014-01-25 05:56:00,
2014-01-25 01:01:00,48.6,38.9,30.30,NE,45,2.5,2.7,69,0.00,,,0.00,WUHU216HW,2014-01-25 06:01:00,
2014-01-25 01:06:00,48.6,38.9,30.30,NE,45,1.8,2.7,69,0.00,,,0.00,WUHU216HW,2014-01-25 06:06:00,
2014-01-25 01:11:00,48.6,38.9,30.29,ENE,68,2.5,3.8,69,0.00,,,0.00,WUHU216HW,2014-01-25 06:11:00,
2014-01-25 01:16:00,48.6,38.9,30.29,ENE,68,3.4,3.8,69,0.00,,,0.00,WUHU216HW,2014-01-25 06:16:00,
2014-01-25 01:21:00,48.8,39.1,30.29,East,90,1.1,3.4,69,0.00,,,0.00,WUHU216HW,2014-01-25 06:21:00,
2014-01-25 01:26:00,48.6,38.9,30.28,East,90,4.0,4.0,69,0.00,,,0.00,WUHU216HW,2014-01-25 06:26:00,
2014-01-25 01:31:00,48.6,39.2,30.29,ESE,113,3.4,4.0,70,0.00,,,0.00,WUHU216HW,2014-01-25 06:31:00,
2014-01-25 01:36:00,48.6,38.9,30.29,ENE,68,3.4,4.0,69,0.00,,,0.00,WUHU216HW,2014-01-25 06:36:00,
2014-01-25 01:41:00,48.6,38.9,30.29,NNE,23,1.8,3.4,69,0.00,,,0.00,WUHU216HW,2014-01-25 06:41:00,
2014-01-25 01:46:00,48.6,39.2,30.29,NE,45,1.8,3.6,70,0.00,,,0.00,WUHU216HW,2014-01-25 06:46:00,
2014-01-25 01:51:00,48.8,39.4,30.28,ENE,68,2.5,3.6,70,0.00,,,0.00,WUHU216HW,2014-01-25 06:51:00,
2014-01-25 01:56:00,48.8,39.4,30.28,ENE,68,0.7,2.5,70,0.00,,,0.00,WUHU216HW,2014-01-25 06:56:00,
2014-01-25 02:01:00,48.8,39.4,30.28,NE,45,2.0,3.4,70,0.00,,,0.00,WUHU216HW,2014-01-25 07:01:00,
2014-01-25 02:06:00,49.0,40.0,30.28,North,0,3.1,3.4,71,0.00,,,0.00,WUHU216HW,2014-01-25 07:06:00,
2014-01-25 02:11:00,49.0,40.0,30.28,ENE,68,2.5,3.1,71,0.00,,,0.00,WUHU216HW,2014-01-25 07:11:00,
2014-01-25 02:16:00,49.0,40.0,30.27,NE,45,4.0,4.0,71,0.00,,,0.00,WUHU216HW,2014-01-25 07:16:00,
2014-01-25 02:21:00,49.1,40.5,30.26,ENE,68,2.5,4.0,72,0.00,,,0.00,WUHU216HW,2014-01-25 07:21:00,
2014-01-25 02:26:00,49.0,40.0,30.27,NNE,23,3.4,4.0,71,0.00,,,0.00,WUHU216HW,2014-01-25 07:26:00,
2014-01-25 02:31:00,49.0,40.0,30.27,North,0,3.4,3.4,71,0.00,,,0.00,WUHU216HW,2014-01-25 07:31:00,
2014-01-25 02:36:00,49.0,40.0,30.26,North,0,1.3,3.4,71,0.00,,,0.00,WUHU216HW,2014-01-25 07:36:00,
2014-01-25 02:41:00,49.0,40.0,30.27,NE,45,2.9,3.4,71,0.00,,,0.00,WUHU216HW,2014-01-25 07:41:00,
2014-01-25 02:46:00,48.6,39.6,30.26,ENE,68,2.9,4.0,71,0.00,,,0.00,WUHU216HW,2014-01-25 07:46:00,
2014-01-25 02:51:00,48.6,39.6,30.25,ENE,68,2.5,4.0,71,0.00,,,0.00,WUHU216HW,2014-01-25 07:51:00,
2014-01-25 02:56:00,48.6,40.0,30.26,NE,45,3.4,3.4,72,0.00,,,0.00,WUHU216HW,2014-01-25 07:56:00,
2014-01-25 03:01:00,48.6,40.0,30.26,NE,45,2.0,3.4,72,0.00,,,0.00,WUHU216HW,2014-01-25 08:01:00,
2014-01-25 03:06:00,48.4,39.4,30.25,NE,45,2.7,3.8,71,0.00,,,0.00,WUHU216HW,2014-01-25 08:06:00,
2014-01-25 03:11:00,48.4,39.4,30.25,NE,45,4.0,4.0,71,0.00,,,0.00,WUHU216HW,2014-01-25 08:11:00,
2014-01-25 03:16:00,48.4,39.4,30.26,ENE,68,2.9,4.0,71,0.00,,,0.00,WUHU216HW,2014-01-25 08:16:00,
2014-01-25 03:21:00,48.2,39.3,30.26,NE,45,2.5,4.0,71,0.00,,,0.00,WUHU216HW,2014-01-25 08:21:00,
2014-01-25 03:26:00,48.4,39.4,30.25,NE,45,2.9,3.6,71,0.00,,,0.00,WUHU216HW,2014-01-25 08:26:00,
2014-01-25 03:31:00,48.2,39.3,30.26,NE,45,2.9,2.9,71,0.00,,,0.00,WUHU216HW,2014-01-25 08:31:00,
2014-01-25 03:36:00,48.4,39.4,30.26,ENE,68,3.6,3.6,71,0.00,,,0.00,WUHU216HW,2014-01-25 08:36:00,
2014-01-25 03:41:00,48.4,39.8,30.25,East,90,2.5,3.6,72,0.00,,,0.00,WUHU216HW,2014-01-25 08:41:00,
2014-01-25 03:46:00,48.4,39.8,30.25,NE,45,1.8,3.6,72,0.00,,,0.00,WUHU216HW,2014-01-25 08:46:00,
2014-01-25 03:51:00,48.4,39.8,30.25,NE,45,0.7,2.5,72,0.00,,,0.00,WUHU216HW,2014-01-25 08:51:00,
2014-01-25 03:56:00,48.4,39.8,30.25,NE,45,1.3,1.8,72,0.00,,,0.00,WUHU216HW,2014-01-25 08:56:00,
2014-01-25 04:01:00,48.4,39.8,30.25,NE,45,2.7,2.7,72,0.00,,,0.00,WUHU216HW,2014-01-25 09:01:00,
2014-01-25 04:06:00,48.2,39.9,30.25,NNE,23,3.4,3.4,73,0.00,,,0.00,WUHU216HW,2014-01-25 09:06:00,
2014-01-25 04:11:00,48.2,39.6,30.24,NE,45,1.8,3.4,72,0.00,,,0.00,WUHU216HW,2014-01-25 09:11:00,
2014-01-25 04:16:00,48.2,39.6,30.25,NNE,23,0.4,3.4,72,0.00,,,0.00,WUHU216HW,2014-01-25 09:16:00,
2014-01-25 04:21:00,48.2,39.6,30.25,ENE,68,0.4,1.8,72,0.00,,,0.00,WUHU216HW,2014-01-25 09:21:00,
2014-01-25 04:26:00,48.2,39.6,30.25,NE,45,1.1,1.8,72,0.00,,,0.00,WUHU216HW,2014-01-25 09:26:00,
2014-01-25 04:31:00,48.2,39.6,30.25,NNE,23,0.4,1.8,72,0.00,,,0.00,WUHU216HW,2014-01-25 09:31:00,
2014-01-25 04:36:00,48.2,39.6,30.25,NE,45,1.8,1.8,72,0.00,,,0.00,WUHU216HW,2014-01-25 09:36:00,
2014-01-25 04:41:00,48.2,39.6,30.24,North,0,0.4,1.8,72,0.00,,,0.00,WUHU216HW,2014-01-25 09:41:00,
2014-01-25 04:46:00,48.1,39.4,30.24,North,0,1.3,1.8,72,0.00,,,0.00,WUHU216HW,2014-01-25 09:46:00,
2014-01-25 04:51:00,47.9,39.2,30.24,NNW,338,1.1,2.0,72,0.00,,,0.00,WUHU216HW,2014-01-25 09:51:00,
2014-01-25 04:56:00,47.9,39.2,30.24,ENE,68,0.4,2.0,72,0.00,,,0.00,WUHU216HW,2014-01-25 09:56:00,
2014-01-25 05:01:00,47.7,39.1,30.25,NW,315,1.3,1.8,72,0.00,,,0.00,WUHU216HW,2014-01-25 10:01:00,
2014-01-25 05:06:00,47.7,39.1,30.24,NNE,23,0.2,1.8,72,0.00,,,0.00,WUHU216HW,2014-01-25 10:06:00,
2014-01-25 05:11:00,47.7,38.7,30.24,NNE,23,0.2,1.3,71,0.00,,,0.00,WUHU216HW,2014-01-25 10:11:00,
2014-01-25 05:16:00,47.7,38.7,30.25,NNE,23,1.8,1.8,71,0.00,,,0.00,WUHU216HW,2014-01-25 10:16:00,
2014-01-25 05:21:00,47.7,38.7,30.24,NNE,23,0.4,1.8,71,0.00,,,0.00,WUHU216HW,2014-01-25 10:21:00,
2014-01-25 05:26:00,47.7,39.1,30.23,NE,45,0.7,1.8,72,0.00,,,0.00,WUHU216HW,2014-01-25 10:26:00,
2014-01-25 05:31:00,47.7,39.1,30.23,ENE,68,1.8,2.5,72,0.00,,,0.00,WUHU216HW,2014-01-25 10:31:00,
2014-01-25 05:36:00,47.7,39.1,30.23,ENE,68,1.1,2.5,72,0.00,,,0.00,WUHU216HW,2014-01-25 10:36:00,
2014-01-25 05:41:00,47.7,39.1,30.23,East,90,2.0,2.5,72,0.00,,,0.00,WUHU216HW,2014-01-25 10:41:00,
2014-01-25 05:46:00,47.5,38.9,30.23,NE,45,1.3,2.5,72,0.00,,,0.00,WUHU216HW,2014-01-25 10:46:00,
2014-01-25 05:51:00,47.5,38.9,30.22,ENE,68,1.3,2.2,72,0.00,,,0.00,WUHU216HW,2014-01-25 10:51:00,
2014-01-25 05:56:00,47.7,39.1,30.23,ENE,68,0.9,2.2,72,0.00,,,0.00,WUHU216HW,2014-01-25 10:56:00,
2014-01-25 06:01:00,47.7,39.1,30.23,ENE,68,0.7,1.3,72,0.00,,,0.00,WUHU216HW,2014-01-25 11:01:00,
2014-01-25 06:06:00,47.7,39.1,30.23,ENE,68,0.9,1.6,72,0.00,,,0.00,WUHU216HW,2014-01-25 11:06:00,
2014-01-25 06:11:00,47.7,39.4,30.23,ENE,68,1.8,2.7,73,0.00,,,0.00,WUHU216HW,2014-01-25 11:11:00,
2014-01-25 06:16:00,47.9,40.0,30.23,ENE,68,1.8,2.7,74,0.00,,,0.00,WUHU216HW,2014-01-25 11:16:00,
2014-01-25 06:21:00,47.9,39.6,30.23,ENE,68,0.2,1.8,73,0.00,,,0.00,WUHU216HW,2014-01-25 11:21:00,
2014-01-25 06:26:00,47.9,39.6,30.23,NE,45,0.4,1.8,73,0.00,,,0.00,WUHU216HW,2014-01-25 11:26:00,
2014-01-25 06:31:00,47.9,39.6,30.23,East,90,0.4,0.4,73,0.00,,,0.00,WUHU216HW,2014-01-25 11:31:00,
2014-01-25 06:36:00,47.9,40.2,30.23,NE,45,1.1,1.1,75,0.00,,,0.00,WUHU216HW,2014-01-25 11:36:00,
2014-01-25 06:41:00,47.7,40.2,30.23,NE,45,0.0,1.1,75,0.00,,,0.00,WUHU216HW,2014-01-25 11:41:00,
2014-01-25 06:46:00,47.9,40.2,30.23,NE,45,1.1,1.1,75,0.00,,,0.00,WUHU216HW,2014-01-25 11:46:00,
2014-01-25 06:51:00,47.9,40.2,30.23,NE,45,1.1,1.8,75,0.00,,,0.00,WUHU216HW,2014-01-25 11:51:00,
2014-01-25 06:56:00,47.9,40.2,30.23,North,0,0.2,1.8,75,0.00,,,0.00,WUHU216HW,2014-01-25 11:56:00,
2014-01-25 07:01:00,47.9,40.2,30.23,NE,45,0.7,1.1,75,0.00,,,0.00,WUHU216HW,2014-01-25 12:01:00,
2014-01-25 07:06:00,47.9,40.2,30.23,NNE,23,0.0,1.1,75,0.00,,,0.00,WUHU216HW,2014-01-25 12:06:00,
2014-01-25 07:11:00,47.7,40.2,30.23,NNE,23,0.2,0.7,75,0.00,,,0.00,WUHU216HW,2014-01-25 12:11:00,
2014-01-25 07:16:00,47.7,39.8,30.23,NNE,23,0.0,0.4,74,0.00,,,0.00,WUHU216HW,2014-01-25 12:16:00,
2014-01-25 07:21:00,47.7,40.2,30.23,NE,45,0.4,0.9,75,0.00,,,0.00,WUHU216HW,2014-01-25 12:21:00,
2014-01-25 07:26:00,47.9,40.6,30.23,NE,45,0.2,1.1,76,0.00,,,0.00,WUHU216HW,2014-01-25 12:26:00,
2014-01-25 07:31:00,47.9,40.6,30.23,NE,45,0.0,1.1,76,0.00,,,0.00,WUHU216HW,2014-01-25 12:31:00,
2014-01-25 07:36:00,48.1,41.1,30.23,ENE,68,1.1,1.1,77,0.00,,,0.00,WUHU216HW,2014-01-25 12:36:00,
2014-01-25 07:41:00,48.2,41.6,30.23,ENE,68,1.8,2.2,78,0.00,,,0.00,WUHU216HW,2014-01-25 12:41:00,
2014-01-25 07:46:00,48.1,41.8,30.21,ENE,68,1.1,2.2,79,0.00,,,0.00,WUHU216HW,2014-01-25 12:46:00,
2014-01-25 07:51:00,48.1,41.8,30.21,East,90,0.9,1.8,79,0.00,,,0.00,WUHU216HW,2014-01-25 12:51:00,
2014-01-25 07:56:00,48.1,41.8,30.22,ENE,68,0.2,1.1,79,0.00,,,0.00,WUHU216HW,2014-01-25 12:56:00,
2014-01-25 08:01:00,48.2,41.6,30.22,East,90,0.9,1.1,78,0.00,,,0.00,WUHU216HW,2014-01-25 13:01:00,
2014-01-25 08:06:00,48.2,41.9,30.22,East,90,1.1,1.6,79,0.00,,,0.00,WUHU216HW,2014-01-25 13:06:00,
2014-01-25 08:11:00,48.6,42.7,30.22,NNE,23,1.6,1.8,80,0.00,,,0.00,WUHU216HW,2014-01-25 13:11:00,
2014-01-25 08:16:00,48.6,42.3,30.22,ENE,68,1.1,1.8,79,0.00,,,0.00,WUHU216HW,2014-01-25 13:16:00,
2014-01-25 08:21:00,49.1,42.5,30.23,NE,45,0.4,1.6,78,0.00,,,0.00,WUHU216HW,2014-01-25 13:21:00,
2014-01-25 08:26:00,49.3,42.4,30.23,ENE,68,0.0,1.1,77,0.00,,,0.00,WUHU216HW,2014-01-25 13:26:00,
2014-01-25 08:31:00,49.7,42.8,30.23,NNE,23,1.1,1.6,77,0.00,,,0.00,WUHU216HW,2014-01-25 13:31:00,
2014-01-25 08:36:00,50.0,42.8,30.23,NE,45,0.7,1.6,76,0.00,,,0.00,WUHU216HW,2014-01-25 13:36:00,
2014-01-25 08:41:00,50.4,43.1,30.23,NE,45,1.1,1.8,76,0.00,,,0.00,WUHU216HW,2014-01-25 13:41:00,
2014-01-25 08:46:00,50.6,42.9,30.23,NE,45,0.7,1.8,75,0.00,,,0.00,WUHU216HW,2014-01-25 13:46:00,
2014-01-25 08:51:00,50.8,43.1,30.23,NE,45,1.1,1.6,75,0.00,,,0.00,WUHU216HW,2014-01-25 13:51:00,
2014-01-25 08:56:00,51.1,43.5,30.23,WNW,293,0.0,1.1,75,0.00,,,0.00,WUHU216HW,2014-01-25 13:56:00,
2014-01-25 09:01:00,51.8,43.8,30.23,NE,45,0.2,1.1,74,0.00,,,0.00,WUHU216HW,2014-01-25 14:01:00,
2014-01-25 09:06:00,52.4,44.0,30.23,SSE,158,0.7,0.7,73,0.00,,,0.00,WUHU216HW,2014-01-25 14:06:00,
2014-01-25 09:11:00,53.3,44.5,30.23,SE,135,0.2,1.1,72,0.00,,,0.00,WUHU216HW,2014-01-25 14:11:00,
2014-01-25 09:16:00,53.6,44.8,30.22,ESE,113,0.4,1.1,72,0.00,,,0.00,WUHU216HW,2014-01-25 14:16:00,
2014-01-25 09:21:00,53.6,44.5,30.22,ENE,68,0.9,0.9,71,0.00,,,0.00,WUHU216HW,2014-01-25 14:21:00,
2014-01-25 09:26:00,53.8,44.7,30.23,NNE,23,0.4,0.9,71,0.00,,,0.00,WUHU216HW,2014-01-25 14:26:00,
2014-01-25 09:31:00,54.7,45.6,30.23,SW,225,0.4,1.1,71,0.00,,,0.00,WUHU216HW,2014-01-25 14:31:00,
2014-01-25 09:36:00,55.4,45.5,30.22,ESE,113,0.7,1.1,69,0.00,,,0.00,WUHU216HW,2014-01-25 14:36:00,
2014-01-25 09:41:00,55.4,45.1,30.23,ESE,113,1.1,1.3,68,0.00,,,0.00,WUHU216HW,2014-01-25 14:41:00,
2014-01-25 09:46:00,55.4,45.1,30.23,ESE,113,0.4,1.3,68,0.00,,,0.00,WUHU216HW,2014-01-25 14:46:00,
2014-01-25 09:51:00,55.4,45.1,30.23,SE,135,1.1,1.1,68,0.00,,,0.00,WUHU216HW,2014-01-25 14:51:00,
2014-01-25 09:56:00,56.5,45.6,30.23,ESE,113,0.7,1.1,67,0.00,,,0.00,WUHU216HW,2014-01-25 14:56:00,
2014-01-25 10:01:00,57.2,45.5,30.23,ENE,68,1.1,1.8,65,0.00,,,0.00,WUHU216HW,2014-01-25 15:01:00,
2014-01-25 10:06:00,57.4,46.1,30.23,SSE,158,1.3,1.8,66,0.00,,,0.00,WUHU216HW,2014-01-25 15:06:00,
2014-01-25 10:11:00,57.6,45.5,30.23,SSE,158,1.8,1.8,64,0.00,,,0.00,WUHU216HW,2014-01-25 15:11:00,
2014-01-25 10:16:00,57.2,45.5,30.24,SE,135,0.4,1.8,65,0.00,,,0.00,WUHU216HW,2014-01-25 15:16:00,
2014-01-25 10:21:00,57.2,45.9,30.23,NE,45,2.5,2.5,66,0.00,,,0.00,WUHU216HW,2014-01-25 15:21:00,
2014-01-25 10:26:00,58.0,46.6,30.23,ENE,68,1.6,2.5,66,0.00,,,0.00,WUHU216HW,2014-01-25 15:26:00,
2014-01-25 10:31:00,58.7,46.5,30.24,ESE,113,0.9,2.5,64,0.00,,,0.00,WUHU216HW,2014-01-25 15:31:00,
2014-01-25 10:36:00,59.2,46.6,30.24,West,270,0.0,2.2,63,0.00,,,0.00,WUHU216HW,2014-01-25 15:36:00,
2014-01-25 10:41:00,59.2,46.2,30.24,WNW,293,1.8,1.8,62,0.00,,,0.00,WUHU216HW,2014-01-25 15:41:00,
2014-01-25 10:46:00,58.5,45.9,30.24,WNW,293,3.4,5.6,63,0.00,,,0.00,WUHU216HW,2014-01-25 15:46:00,
2014-01-25 10:51:00,58.3,45.7,30.24,WNW,293,3.4,5.6,63,0.00,,,0.00,WUHU216HW,2014-01-25 15:51:00,
2014-01-25 10:56:00,58.5,45.9,30.24,West,270,2.0,3.4,63,0.00,,,0.00,WUHU216HW,2014-01-25 15:56:00,
2014-01-25 11:01:00,58.7,46.1,30.24,NW,315,3.6,3.6,63,0.00,,,0.00,WUHU216HW,2014-01-25 16:01:00,
2014-01-25 11:06:00,59.2,46.6,30.24,NNW,338,1.8,3.6,63,0.00,,,0.00,WUHU216HW,2014-01-25 16:06:00,
2014-01-25 11:11:00,59.8,46.7,30.23,North,0,2.5,4.3,62,0.00,,,0.00,WUHU216HW,2014-01-25 16:11:00,
2014-01-25 11:16:00,60.3,46.9,30.23,NW,315,3.1,4.3,61,0.00,,,0.00,WUHU216HW,2014-01-25 16:16:00,
2014-01-25 11:21:00,60.5,47.1,30.23,North,0,1.1,3.1,61,0.00,,,0.00,WUHU216HW,2014-01-25 16:21:00,
2014-01-25 11:26:00,60.7,46.8,30.23,NW,315,2.5,3.1,60,0.00,,,0.00,WUHU216HW,2014-01-25 16:26:00,
2014-01-25 11:31:00,61.0,47.2,30.22,WNW,293,1.3,2.5,60,0.00,,,0.00,WUHU216HW,2014-01-25 16:31:00,
2014-01-25 11:36:00,61.2,46.8,30.22,NW,315,1.1,2.5,59,0.00,,,0.00,WUHU216HW,2014-01-25 16:36:00,
2014-01-25 11:41:00,61.6,47.2,30.21,North,0,0.7,1.3,59,0.00,,,0.00,WUHU216HW,2014-01-25 16:41:00,
2014-01-25 11:46:00,61.9,47.0,30.21,NNE,23,1.6,1.6,58,0.00,,,0.00,WUHU216HW,2014-01-25 16:46:00,
2014-01-25 11:51:00,62.5,48.0,30.21,WSW,248,0.7,1.6,59,0.00,,,0.00,WUHU216HW,2014-01-25 16:51:00,
2014-01-25 11:56:00,63.2,45.7,30.21,NW,315,2.5,5.6,53,0.00,,,0.00,WUHU216HW,2014-01-25 16:56:00,
2014-01-25 12:01:00,63.4,46.4,30.21,WNW,293,2.0,5.6,54,0.00,,,0.00,WUHU216HW,2014-01-25 17:01:00,
2014-01-25 12:06:00,63.4,45.8,30.21,NW,315,1.8,2.5,53,0.00,,,0.00,WUHU216HW,2014-01-25 17:06:00,
2014-01-25 12:11:00,62.6,46.2,30.20,WNW,293,2.2,2.2,55,0.00,,,0.00,WUHU216HW,2014-01-25 17:11:00,
2014-01-25 12:16:00,62.1,46.2,30.20,West,270,2.2,2.7,56,0.00,,,0.00,WUHU216HW,2014-01-25 17:16:00,
2014-01-25 12:21:00,62.1,46.2,30.19,WNW,293,2.7,2.7,56,0.00,,,0.00,WUHU216HW,2014-01-25 17:21:00,
2014-01-25 12:26:00,62.3,46.8,30.19,West,270,4.0,4.0,57,0.00,,,0.00,WUHU216HW,2014-01-25 17:26:00,
2014-01-25 12:31:00,62.5,46.5,30.19,North,0,2.7,4.0,56,0.00,,,0.00,WUHU216HW,2014-01-25 17:31:00,
2014-01-25 12:36:00,63.0,47.0,30.18,SW,225,1.8,4.0,56,0.00,,,0.00,WUHU216HW,2014-01-25 17:36:00,
2014-01-25 12:41:00,63.4,47.4,30.18,SSW,203,1.8,1.8,56,0.00,,,0.00,WUHU216HW,2014-01-25 17:41:00,
2014-01-25 12:46:00,63.7,47.2,30.17,SSW,203,2.5,2.5,55,0.00,,,0.00,WUHU216HW,2014-01-25 17:46:00,
2014-01-25 12:51:00,64.3,45.7,30.17,NW,315,2.5,2.5,51,0.00,,,0.00,WUHU216HW,2014-01-25 17:51:00,
2014-01-25 12:56:00,63.7,45.7,30.16,WSW,248,1.3,2.5,52,0.00,,,0.00,WUHU216HW,2014-01-25 17:56:00,
2014-01-25 13:01:00,64.4,46.4,30.16,NNE,23,1.8,2.5,52,0.00,,,0.00,WUHU216HW,2014-01-25 18:01:00,
2014-01-25 13:06:00,64.8,46.7,30.15,SSE,158,2.5,2.5,52,0.00,,,0.00,WUHU216HW,2014-01-25 18:06:00,
2014-01-25 13:11:00,65.2,44.9,30.15,West,270,2.5,2.5,48,0.00,,,0.00,WUHU216HW,2014-01-25 18:11:00,
2014-01-25 13:16:00,65.2,46.1,30.14,SE,135,1.8,2.5,50,0.00,,,0.00,WUHU216HW,2014-01-25 18:16:00,
2014-01-25 13:21:00,65.3,43.9,30.13,WNW,293,0.0,2.5,46,0.00,,,0.00,WUHU216HW,2014-01-25 18:21:00,
2014-01-25 13:26:00,65.2,43.7,30.13,WSW,248,1.3,2.0,46,0.00,,,0.00,WUHU216HW,2014-01-25 18:26:00,
2014-01-25 13:31:00,65.3,43.9,30.13,NNW,338,0.4,2.0,46,0.00,,,0.00,WUHU216HW,2014-01-25 18:31:00,
2014-01-25 13:36:00,66.1,44.7,30.13,SSW,203,2.9,2.9,46,0.00,,,0.00,WUHU216HW,2014-01-25 18:36:00,
2014-01-25 13:41:00,66.4,44.4,30.12,West,270,2.5,2.9,45,0.00,,,0.00,WUHU216HW,2014-01-25 18:41:00,
2014-01-25 13:46:00,66.6,43.9,30.12,SSW,203,2.5,2.9,44,0.00,,,0.00,WUHU216HW,2014-01-25 18:46:00,
2014-01-25 13:51:00,66.8,44.1,30.12,SSE,158,1.8,3.6,44,0.00,,,0.00,WUHU216HW,2014-01-25 18:51:00,
2014-01-25 13:56:00,66.6,45.1,30.11,SSE,158,5.6,5.6,46,0.00,,,0.00,WUHU216HW,2014-01-25 18:56:00,
2014-01-25 14:01:00,67.0,43.0,30.11,SE,135,5.1,5.8,42,0.00,,,0.00,WUHU216HW,2014-01-25 19:01:00,
2014-01-25 14:06:00,67.1,43.8,30.11,SSW,203,0.9,5.8,43,0.00,,,0.00,WUHU216HW,2014-01-25 19:06:00,
2014-01-25 14:11:00,67.3,42.8,30.10,SSE,158,5.1,5.1,41,0.00,,,0.00,WUHU216HW,2014-01-25 19:11:00,
2014-01-25 14:16:00,67.3,44.0,30.11,WNW,293,1.6,5.1,43,0.00,,,0.00,WUHU216HW,2014-01-25 19:16:00,
2014-01-25 14:21:00,67.1,42.0,30.11,WNW,293,2.0,5.1,40,0.00,,,0.00,WUHU216HW,2014-01-25 19:21:00,
2014-01-25 14:26:00,67.0,41.1,30.10,West,270,2.2,2.5,39,0.00,,,0.00,WUHU216HW,2014-01-25 19:26:00,
2014-01-25 14:31:00,66.6,42.1,30.10,SSE,158,1.3,2.2,41,0.00,,,0.00,WUHU216HW,2014-01-25 19:31:00,
2014-01-25 14:36:00,66.6,41.6,30.10,SE,135,2.5,2.5,40,0.00,,,0.00,WUHU216HW,2014-01-25 19:36:00,
2014-01-25 14:41:00,66.8,41.7,30.10,SSE,158,3.4,3.6,40,0.00,,,0.00,WUHU216HW,2014-01-25 19:41:00,
2014-01-25 14:46:00,67.0,43.7,30.10,SW,225,5.4,5.4,43,0.00,,,0.00,WUHU216HW,2014-01-25 19:46:00,
2014-01-25 14:51:00,66.8,44.1,30.10,WSW,248,3.1,5.4,44,0.00,,,0.00,WUHU216HW,2014-01-25 19:51:00,
2014-01-25 14:56:00,66.6,45.1,30.10,SW,225,0.9,5.4,46,0.00,,,0.00,WUHU216HW,2014-01-25 19:56:00,
2014-01-25 15:01:00,66.2,46.0,30.10,West,270,3.6,3.6,48,0.00,,,0.00,WUHU216HW,2014-01-25 20:01:00,
2014-01-25 15:06:00,65.9,46.2,30.09,NW,315,3.4,3.6,49,0.00,,,0.00,WUHU216HW,2014-01-25 20:06:00,
2014-01-25 15:11:00,65.9,46.8,30.09,SW,225,1.8,3.6,50,0.00,,,0.00,WUHU216HW,2014-01-25 20:11:00,
2014-01-25 15:16:00,65.9,46.2,30.09,SW,225,5.4,5.4,49,0.00,,,0.00,WUHU216HW,2014-01-25 20:16:00,
2014-01-25 15:21:00,65.9,46.2,30.09,SSW,203,1.8,5.4,49,0.00,,,0.00,WUHU216HW,2014-01-25 20:21:00,
2014-01-25 15:26:00,65.9,46.8,30.09,SW,225,2.5,5.4,50,0.00,,,0.00,WUHU216HW,2014-01-25 20:26:00,
2014-01-25 15:31:00,65.7,47.1,30.09,SW,225,2.0,2.5,51,0.00,,,0.00,WUHU216HW,2014-01-25 20:31:00,
2014-01-25 15:36:00,65.5,47.4,30.09,NW,315,1.1,2.5,52,0.00,,,0.00,WUHU216HW,2014-01-25 20:36:00,
2014-01-25 15:41:00,65.2,47.5,30.09,WNW,293,2.7,4.5,53,0.00,,,0.00,WUHU216HW,2014-01-25 20:41:00,
2014-01-25 15:46:00,65.2,47.5,30.09,WNW,293,0.4,4.5,53,0.00,,,0.00,WUHU216HW,2014-01-25 20:46:00,
2014-01-25 15:51:00,65.2,47.5,30.09,WSW,248,2.5,2.7,53,0.00,,,0.00,WUHU216HW,2014-01-25 20:51:00,
2014-01-25 15:56:00,65.2,48.1,30.09,NNW,338,0.7,2.5,54,0.00,,,0.00,WUHU216HW,2014-01-25 20:56:00,
2014-01-25 16:01:00,64.8,48.2,30.09,WNW,293,2.5,2.5,55,0.00,,,0.00,WUHU216HW,2014-01-25 21:01:00,
2014-01-25 16:06:00,64.8,48.2,30.09,WSW,248,1.1,2.5,55,0.00,,,0.00,WUHU216HW,2014-01-25 21:06:00,
2014-01-25 16:11:00,64.8,48.6,30.08,WNW,293,1.8,2.5,56,0.00,,,0.00,WUHU216HW,2014-01-25 21:11:00,
2014-01-25 16:16:00,64.8,48.6,30.09,SW,225,1.6,1.8,56,0.00,,,0.00,WUHU216HW,2014-01-25 21:16:00,
2014-01-25 16:17:00,64.8,48.6,30.09,SW,225,1.6,1.8,56,0.00,,,0.00,WUHU216HW,2014-01-25 21:17:00,
2014-01-25 16:22:00,64.6,49.0,30.08,SE,135,1.8,2.5,57,0.00,,,0.00,WUHU216HW,2014-01-25 21:22:00,
2014-01-25 16:27:00,64.4,49.2,30.09,NNW,338,1.8,2.5,58,0.00,,,0.00,WUHU216HW,2014-01-25 21:27:00,
2014-01-25 16:32:00,64.3,49.6,30.09,SW,225,2.2,2.2,59,0.00,,,0.00,WUHU216HW,2014-01-25 21:32:00,
2014-01-25 16:37:00,64.3,50.0,30.09,WSW,248,1.1,2.2,60,0.00,,,0.00,WUHU216HW,2014-01-25 21:37:00,
2014-01-25 16:42:00,64.1,49.9,30.09,WSW,248,1.1,2.2,60,0.00,,,0.00,WUHU216HW,2014-01-25 21:42:00,
2014-01-25 16:47:00,63.9,49.8,30.08,WNW,293,1.3,2.5,60,0.00,,,0.00,WUHU216HW,2014-01-25 21:47:00,
2014-01-25 16:52:00,63.9,49.8,30.08,SSE,158,2.5,2.5,60,0.00,,,0.00,WUHU216HW,2014-01-25 21:52:00,
2014-01-25 16:57:00,63.7,49.6,30.08,North,0,0.0,2.5,60,0.00,,,0.00,WUHU216HW,2014-01-25 21:57:00,
2014-01-25 17:02:00,63.4,49.7,30.08,SSW,203,0.4,2.5,61,0.00,,,0.00,WUHU216HW,2014-01-25 22:02:00,
2014-01-25 17:07:00,63.0,49.3,30.08,South,180,2.5,3.8,61,0.00,,,0.00,WUHU216HW,2014-01-25 22:07:00,
2014-01-25 17:12:00,62.6,49.4,30.08,South,180,1.6,3.8,62,0.00,,,0.00,WUHU216HW,2014-01-25 22:12:00,
2014-01-25 17:17:00,62.1,49.3,30.08,SSE,158,0.7,2.5,63,0.00,,,0.00,WUHU216HW,2014-01-25 22:17:00,
2014-01-25 17:22:00,61.9,49.2,30.08,SE,135,0.0,1.6,63,0.00,,,0.00,WUHU216HW,2014-01-25 22:22:00,
2014-01-25 17:27:00,61.6,49.7,30.08,West,270,0.7,1.1,65,0.00,,,0.00,WUHU216HW,2014-01-25 22:27:00,
2014-01-25 17:32:00,61.2,49.8,30.08,SSE,158,1.6,1.6,66,0.00,,,0.00,WUHU216HW,2014-01-25 22:32:00,
2014-01-25 17:37:00,60.8,49.1,30.08,SSW,203,1.1,1.6,65,0.00,,,0.00,WUHU216HW,2014-01-25 22:37:00,
2014-01-25 17:42:00,60.3,49.3,30.08,WSW,248,0.7,1.6,67,0.00,,,0.00,WUHU216HW,2014-01-25 22:42:00,
2014-01-25 17:47:00,60.1,48.3,30.09,West,270,0.7,1.1,65,0.00,,,0.00,WUHU216HW,2014-01-25 22:47:00,
2014-01-25 17:51:00,59.8,48.8,30.09,SSW,203,1.1,1.1,67,0.00,,,0.00,WUHU216HW,2014-01-25 22:51:00,
2014-01-25 17:56:00,59.6,48.6,30.09,NNE,23,0.2,1.1,67,0.00,,,0.00,WUHU216HW,2014-01-25 22:56:00,
2014-01-25 18:01:00,59.2,49.1,30.10,West,270,0.0,1.1,69,0.00,,,0.00,WUHU216HW,2014-01-25 23:01:00,
2014-01-25 18:06:00,59.0,49.3,30.10,WSW,248,0.4,0.9,70,0.00,,,0.00,WUHU216HW,2014-01-25 23:06:00,
2014-01-25 18:11:00,58.5,48.8,30.09,West,270,0.0,1.1,70,0.00,,,0.00,WUHU216HW,2014-01-25 23:11:00,
2014-01-25 18:16:00,58.3,49.3,30.09,SW,225,0.0,1.1,72,0.00,,,0.00,WUHU216HW,2014-01-25 23:16:00,
2014-01-25 18:22:00,58.0,48.2,30.09,West,270,0.4,0.7,70,0.00,,,0.00,WUHU216HW,2014-01-25 23:22:00,
2014-01-25 18:27:00,57.8,48.4,30.09,WSW,248,0.4,0.7,71,0.00,,,0.00,WUHU216HW,2014-01-25 23:27:00,
2014-01-25 18:32:00,57.2,48.6,30.09,ESE,113,0.2,0.4,73,0.00,,,0.00,WUHU216HW,2014-01-25 23:32:00,
2014-01-25 18:37:00,57.1,47.7,30.09,WNW,293,0.0,0.4,71,0.00,,,0.00,WUHU216HW,2014-01-25 23:37:00,
2014-01-25 18:42:00,56.9,47.9,30.08,South,180,1.1,1.1,72,0.00,,,0.00,WUHU216HW,2014-01-25 23:42:00,
2014-01-25 18:47:00,56.5,48.0,30.08,SSE,158,0.7,1.1,73,0.00,,,0.00,WUHU216HW,2014-01-25 23:47:00,
2014-01-25 18:52:00,56.2,48.6,30.08,SW,225,0.2,1.1,76,0.00,,,0.00,WUHU216HW,2014-01-25 23:52:00,
2014-01-25 18:57:00,56.0,47.8,30.08,South,180,1.3,1.3,74,0.00,,,0.00,WUHU216HW,2014-01-25 23:57:00,
2014-01-25 19:01:00,55.8,48.6,30.09,SSW,203,0.0,1.3,77,0.00,,,0.00,WUHU216HW,2014-01-26 00:01:00,
2014-01-25 19:06:00,55.6,48.2,30.09,SSW,203,0.0,1.3,76,0.00,,,0.00,WUHU216HW,2014-01-26 00:06:00,
2014-01-25 19:11:00,55.4,48.0,30.09,SE,135,0.0,0.2,76,0.00,,,0.00,WUHU216HW,2014-01-26 00:11:00,
2014-01-25 19:16:00,55.3,47.8,30.09,SW,225,0.0,0.0,76,0.00,,,0.00,WUHU216HW,2014-01-26 00:16:00,
2014-01-25 19:21:00,55.1,47.6,30.09,SW,225,0.0,0.0,76,0.00,,,0.00,WUHU216HW,2014-01-26 00:21:00,
2014-01-25 19:26:00,55.1,48.3,30.09,SSW,203,0.0,0.0,78,0.00,,,0.00,WUHU216HW,2014-01-26 00:26:00,
2014-01-25 19:31:00,54.7,48.0,30.09,South,180,0.0,0.0,78,0.00,,,0.00,WUHU216HW,2014-01-26 00:31:00,
2014-01-25 19:36:00,54.7,49.3,30.09,South,180,0.0,0.0,82,0.00,,,0.00,WUHU216HW,2014-01-26 00:36:00,
2014-01-25 19:41:00,54.5,48.2,30.10,South,180,0.0,0.0,79,0.00,,,0.00,WUHU216HW,2014-01-26 00:41:00,
2014-01-25 19:46:00,54.4,48.7,30.10,South,180,0.0,0.0,81,0.00,,,0.00,WUHU216HW,2014-01-26 00:46:00,
2014-01-25 19:51:00,54.4,48.7,30.10,South,180,0.0,0.0,81,0.00,,,0.00,WUHU216HW,2014-01-26 00:51:00,
2014-01-25 19:56:00,54.2,47.8,30.10,South,180,0.0,0.0,79,0.00,,,0.00,WUHU216HW,2014-01-26 00:56:00,
2014-01-25 20:01:00,54.0,47.7,30.09,SSE,158,0.0,0.4,79,0.00,,,0.00,WUHU216HW,2014-01-26 01:01:00,
2014-01-25 20:06:00,53.8,47.5,30.09,SSE,158,0.0,0.4,79,0.00,,,0.00,WUHU216HW,2014-01-26 01:06:00,
2014-01-25 20:11:00,53.8,47.9,30.09,SSE,158,0.0,0.0,80,0.00,,,0.00,WUHU216HW,2014-01-26 01:11:00,
2014-01-25 20:16:00,53.8,47.9,30.09,SSE,158,0.0,0.0,80,0.00,,,0.00,WUHU216HW,2014-01-26 01:16:00,
2014-01-25 20:21:00,53.8,49.1,30.10,SSE,158,0.0,0.0,84,0.00,,,0.00,WUHU216HW,2014-01-26 01:21:00,
2014-01-25 20:26:00,54.2,49.4,30.10,SW,225,0.0,0.0,84,0.00,,,0.00,WUHU216HW,2014-01-26 01:26:00,
2014-01-25 20:31:00,54.4,49.6,30.10,SW,225,0.0,0.0,84,0.00,,,0.00,WUHU216HW,2014-01-26 01:31:00,
2014-01-25 20:36:00,54.5,50.1,30.10,SW,225,0.0,0.0,85,0.00,,,0.00,WUHU216HW,2014-01-26 01:36:00,
2014-01-25 20:41:00,54.9,49.8,30.10,SW,225,0.0,0.0,83,0.00,,,0.00,WUHU216HW,2014-01-26 01:41:00,
2014-01-25 20:46:00,55.1,50.0,30.10,SW,225,0.0,0.0,83,0.00,,,0.00,WUHU216HW,2014-01-26 01:46:00,
2014-01-25 20:51:00,55.3,50.1,30.10,SSE,158,0.7,0.7,83,0.00,,,0.00,WUHU216HW,2014-01-26 01:51:00,
2014-01-25 20:56:00,55.6,50.5,30.10,South,180,0.9,1.1,83,0.00,,,0.00,WUHU216HW,2014-01-26 01:56:00,
2014-01-25 21:01:00,55.8,50.7,30.10,SSE,158,0.4,1.1,83,0.00,,,0.00,WUHU216HW,2014-01-26 02:01:00,
2014-01-25 21:06:00,56.2,51.0,30.10,South,180,0.9,1.3,83,0.00,,,0.00,WUHU216HW,2014-01-26 02:06:00,
2014-01-25 21:11:00,56.5,51.4,30.10,South,180,0.7,1.3,83,0.00,,,0.00,WUHU216HW,2014-01-26 02:11:00,
2014-01-25 21:16:00,56.7,51.8,30.10,SSW,203,1.1,1.1,84,0.00,,,0.00,WUHU216HW,2014-01-26 02:16:00,
2014-01-25 21:21:00,57.1,52.2,30.10,SSW,203,0.2,1.1,84,0.00,,,0.00,WUHU216HW,2014-01-26 02:21:00,
2014-01-25 21:26:00,57.2,52.4,30.10,SSE,158,0.9,1.1,84,0.00,,,0.00,WUHU216HW,2014-01-26 02:26:00,
2014-01-25 21:31:00,57.4,52.6,30.10,SE,135,0.4,0.9,84,0.00,,,0.00,WUHU216HW,2014-01-26 02:31:00,
2014-01-25 21:36:00,57.6,52.7,30.10,SSE,158,1.8,1.8,84,0.00,,,0.00,WUHU216HW,2014-01-26 02:36:00,
2014-01-25 21:41:00,57.8,53.3,30.10,SSE,158,0.2,1.8,85,0.00,,,0.00,WUHU216HW,2014-01-26 02:41:00,
2014-01-25 21:46:00,58.0,53.5,30.10,SSE,158,0.2,1.8,85,0.00,,,0.00,WUHU216HW,2014-01-26 02:46:00,
2014-01-25 21:51:00,58.1,53.6,30.10,SSE,158,0.0,1.3,85,0.00,,,0.00,WUHU216HW,2014-01-26 02:51:00,
2014-01-25 21:56:00,58.3,53.8,30.10,SSE,158,1.1,1.6,85,0.00,,,0.00,WUHU216HW,2014-01-26 02:56:00,
2014-01-25 22:01:00,58.5,54.0,30.10,South,180,0.9,1.6,85,0.00,,,0.00,WUHU216HW,2014-01-26 03:01:00,
2014-01-25 22:06:00,58.7,54.2,30.10,SW,225,1.8,1.8,85,0.00,,,0.00,WUHU216HW,2014-01-26 03:06:00,
2014-01-25 22:11:00,58.7,53.8,30.10,SSE,158,1.8,1.8,84,0.00,,,0.00,WUHU216HW,2014-01-26 03:11:00,
2014-01-25 22:16:00,58.9,54.0,30.10,SSE,158,2.0,2.7,84,0.00,,,0.00,WUHU216HW,2014-01-26 03:16:00,
2014-01-25 22:21:00,58.9,54.0,30.10,SSE,158,1.1,2.7,84,0.00,,,0.00,WUHU216HW,2014-01-26 03:21:00,
2014-01-25 22:26:00,58.9,54.0,30.10,SSW,203,2.2,2.2,84,0.00,,,0.00,WUHU216HW,2014-01-26 03:26:00,
2014-01-25 22:31:00,59.0,55.2,30.10,SSE,158,1.3,2.2,87,0.00,,,0.00,WUHU216HW,2014-01-26 03:31:00,
2014-01-25 22:36:00,59.2,54.7,30.10,SW,225,4.3,4.3,85,0.00,,,0.00,WUHU216HW,2014-01-26 03:36:00,
2014-01-25 22:41:00,59.2,54.7,30.09,SSW,203,2.0,4.3,85,0.00,,,0.00,WUHU216HW,2014-01-26 03:41:00,
2014-01-25 22:46:00,59.4,55.3,30.09,SSE,158,1.8,4.3,86,0.00,,,0.00,WUHU216HW,2014-01-26 03:46:00,
2014-01-25 22:51:00,59.2,54.7,30.09,SSW,203,3.4,3.4,85,0.00,,,0.00,WUHU216HW,2014-01-26 03:51:00,
2014-01-25 22:56:00,59.0,54.5,30.09,SSE,158,2.9,3.4,85,0.00,,,0.00,WUHU216HW,2014-01-26 03:56:00,
2014-01-25 23:01:00,59.0,55.5,30.09,SSE,158,2.5,3.4,88,0.00,,,0.00,WUHU216HW,2014-01-26 04:01:00,
2014-01-25 23:06:00,58.9,55.0,30.08,South,180,5.4,5.4,87,0.00,,,0.00,WUHU216HW,2014-01-26 04:06:00,
2014-01-25 23:11:00,58.9,55.4,30.08,South,180,2.0,5.4,88,0.00,,,0.00,WUHU216HW,2014-01-26 04:11:00,
2014-01-25 23:16:00,58.7,54.8,30.08,South,180,3.6,5.4,87,0.00,,,0.00,WUHU216HW,2014-01-26 04:16:00,
2014-01-25 23:21:00,58.9,55.4,30.08,SSW,203,2.9,3.6,88,0.00,,,0.00,WUHU216HW,2014-01-26 04:21:00,
2014-01-25 23:26:00,58.7,54.8,30.08,SSW,203,0.7,3.6,87,0.00,,,0.00,WUHU216HW,2014-01-26 04:26:00,
2014-01-25 23:31:00,58.7,54.8,30.08,SSW,203,1.6,2.9,87,0.00,,,0.00,WUHU216HW,2014-01-26 04:31:00,
2014-01-25 23:36:00,58.5,54.6,30.08,South,180,1.3,3.1,87,0.00,,,0.00,WUHU216HW,2014-01-26 04:36:00,
2014-01-25 23:41:00,58.3,54.5,30.08,SSW,203,1.3,3.1,87,0.00,,,0.00,WUHU216HW,2014-01-26 04:41:00,
2014-01-25 23:46:00,58.3,54.5,30.07,SSW,203,1.8,1.8,87,0.00,,,0.00,WUHU216HW,2014-01-26 04:46:00,
2014-01-25 23:51:00,58.1,54.3,30.07,SSW,203,1.1,2.0,87,0.00,,,0.00,WUHU216HW,2014-01-26 04:51:00,
2014-01-25 23:56:00,58.3,54.5,30.07,SSE,158,1.8,2.5,87,0.00,,,0.00,WUHU216HW,2014-01-26 04:56:00,